This is the latest recevied weather packets stored in our database for station/object XQ6AK-15. If no packets are shown the sender has not sent any weather packets the latest 10 day(s).
| Time | Temp. | Humidity | Pressure | Rain* | Wind** | Luminosity | Snow |
|---|---|---|---|---|---|---|---|
| 1788103607 | 8.89° C | 99% | 1011.6 hPa | 0 mm | - | 75 W/m² | - |
| 1788103307 | 9.44° C | 99% | 1011.4 hPa | 0 mm | - | 122 W/m² | - |
| 1788103002 | 8.89° C | 99% | 1011.5 hPa | 1.27 mm | - | 138 W/m² | - |
| 1788102701 | 8.89° C | 99% | 1011.4 hPa | 0 mm | - | 105 W/m² | - |
| 1788102396 | 8.89° C | 99% | 1011.6 hPa | 0 mm | - | 85 W/m² | - |
| 1788102091 | 8.89° C | 99% | 1011.5 hPa | 0 mm | - | 99 W/m² | - |
| 1788101790 | 8.89° C | 99% | 1011.6 hPa | 1.78 mm | - | 95 W/m² | - |
| 1788101485 | 8.89° C | 99% | 1011.8 hPa | 1.78 mm | - | 75 W/m² | - |
| 1788101181 | 8.89° C | 99% | 1011.8 hPa | 1.27 mm | - | 78 W/m² | - |
| 1788100877 | 8.33° C | 99% | 1011.9 hPa | 3.05 mm | - | 71 W/m² | - |
| 1788100573 | 8.33° C | 99% | 1011.9 hPa | 1.78 mm | - | 56 W/m² | - |
| 1788100270 | 8.33° C | 99% | 1011.7 hPa | 1.27 mm | - | 44 W/m² | - |
| 1788099966 | 8.33° C | 99% | 1011.8 hPa | 0 mm | - | 35 W/m² | - |
| 1788099661 | 8.33° C | 99% | 1011.9 hPa | 1.78 mm | - | 50 W/m² | - |
| 1788099356 | 8.33° C | 99% | 1011.9 hPa | 1.78 mm | - | 68 W/m² | - |
| 1788099051 | 8.33° C | 99% | 1011.9 hPa | 1.27 mm | - | 52 W/m² | - |
| 1788098751 | 8.33° C | 99% | 1011.9 hPa | 1.27 mm | - | 49 W/m² | - |
| 1788098447 | 8.33° C | 99% | 1011.9 hPa | 1.78 mm | - | 46 W/m² | - |
| 1788098141 | 8.33° C | 99% | 1012.1 hPa | 1.78 mm | - | 53 W/m² | - |
| 1788097836 | 8.33° C | 99% | 1012 hPa | 1.78 mm | - | 44 W/m² | - |
| 1788097532 | 8.33° C | 99% | 1012 hPa | 1.78 mm | - | 51 W/m² | - |
| 1788097227 | 8.33° C | 99% | 1011.9 hPa | 1.27 mm | - | 43 W/m² | - |
| 1788096923 | 8.33° C | 99% | 1011.7 hPa | 1.27 mm | - | 39 W/m² | - |
| 1788096618 | 8.33° C | 99% | 1011.9 hPa | 1.78 mm | - | 34 W/m² | - |
| 1788096314 | 8.33° C | 99% | 1011.8 hPa | 1.78 mm | - | 36 W/m² | - |
* Rain latest hour (hover to see other rain measurements)
** Current wind speed in m/s (hover to see current wind gust speed)